This demonstration page uses our WeatherBlox Daily Observations layout. Learn more.

Left ArrowRight Arrow

36.17497, -115.13722

Hourly Observations for October 22, 2021

Temp ( °F °C ) Dew Point ( °F °C ) Humidity (%) Winds ( mph kmh ) Pressure ( in mb ) Visibility ( mi km ) Precip ( " mm )
12:53 am 00:53 Clear 60 15.6 33 0.6 36 36 WNW 6 9 30.05 1018 10 16 N/A
1:53 am 01:53 Clear 59 15 33 0.6 38 38 NW 5 7 30.04 1017 10 16 N/A
2:53 am 02:53 Clear 57 13.9 33 0.6 41 41 NW 6 9 30.03 1017 10 16 N/A
3:53 am 03:53 Clear 56 13.3 32 undefined 40 40 NW 5 7 30.01 1016 10 16 N/A
4:53 am 04:53 Clear 56 13.3 34 1.1 44 44 NW 5 7 30.01 1016 10 16 N/A
5:53 am 05:53 Clear 54 12.2 33 0.6 45 45 WNW 7 11 30.01 1016 10 16 N/A
6:53 am 06:53 Clear 53 11.7 35 1.7 51 51 NW 6 9 30.01 1016 10 16 N/A
7:53 am 07:53 Sunny 57 13.9 35 1.7 44 44 NW 3 6 30.01 1016 10 16 N/A
8:53 am 08:53 Sunny 63 17.2 35 1.7 35 35 N N/A 30.02 1017 10 16 N/A
9:53 am 09:53 Sunny 66 18.9 32 undefined 28 28 N N/A 30.01 1016 10 16 N/A
10:53 am 10:53 Sunny 70 21.1 32 undefined 25 25 SE 7 11 29.98 1015 10 16 N/A
11:53 am 11:53 Sunny 72 22.2 33 0.6 24 24 SE 7 11 29.96 1014 10 16 N/A
12:53 pm 12:53 Sunny 75 23.9 33 0.6 22 22 VRB 6 9 29.91 1013 10 16 N/A
1:53 pm 13:53 Sunny 79 26.1 33 0.6 19 19 SE 10 17 29.86 1011 10 16 N/A
2:53 pm 14:53 Sunny 81 27.2 31 -0.6 16 16 SE 10 17 29.82 1010 10 16 N/A
3:53 pm 15:53 Sunny 84 28.9 15 -9.4 7 7 SSW 21 33 29.81 1009 10 16 N/A
4:53 pm 16:53 Sunny 82 27.8 15 -9.4 8 8 SSW 18 30 29.78 1009 10 16 N/A
5:53 pm 17:53 Sunny 79 26.1 15 -9.4 9 9 SSW 14 22 29.78 1008 10 16 N/A
6:53 pm 18:53 Clear 76 24.4 16 -8.9 10 10 SSE 8 13 29.79 1009 10 16 N/A
7:53 pm 19:53 Clear 75 23.9 18 -7.8 11 11 SSE 10 17 29.78 1009 10 16 N/A
8:53 pm 20:53 Clear 76 24.4 20 -6.7 12 12 SSE 16 26 29.77 1008 10 16 N/A
9:53 pm 21:53 Clear 75 23.9 21 -6.1 13 13 ESE 13 20 29.77 1008 10 16 N/A
10:53 pm 22:53 Clear 74 23.3 24 -4.4 15 15 S 13 20 29.75 1007 10 16 N/A
11:53 pm 23:53 Clear 72 22.2 37 2.8 28 28 SSE 10 17 29.75 1007 10 16 N/A

Powered by AerisWeather